;"Summenlastgang aller Einspeisungen
Umspannung MS/NS
+ Vorgelagertes Netz
+ dezentrale Erzeugung"
Arbeit;208.245.198
H�chstleistung;41.539
Ab Zeit;04.12.2023 18:00
01.01.2023 00:00;19.210
01.01.2023 00:15;20.306
01.01.2023 00:30;19.782
01.01.2023 00:45;19.456
01.01.2023 01:00;19.719
01.01.2023 01:15;16.433
01.01.2023 01:30;20.392
01.01.2023 01:45;17.147
01.01.2023 02:00;18.955
01.01.2023 02:15;16.398
01.01.2023 02:30;17.285
01.01.2023 02:45;18.267
01.01.2023 03:00;15.505
01.01.2023 03:15;17.009
01.01.2023 03:30;15.969
01.01.2023 03:45;15.157
01.01.2023 04:00;15.388
01.01.2023 04:15;13.945
01.01.2023 04:30;16.698
01.01.2023 04:45;15.269
01.01.2023 05:00;15.988
01.01.2023 05:15;14.246
01.01.2023 05:30;17.003
01.01.2023 05:45;15.653
01.01.2023 06:00;13.722
01.01.2023 06:15;16.088
01.01.2023 06:30;14.977
01.01.2023 06:45;17.352
01.01.2023 07:00;16.053
01.01.2023 07:15;16.400
01.01.2023 07:30;15.955
01.01.2023 07:45;16.263
01.01.2023 08:00;17.744
01.01.2023 08:15;17.962
01.01.2023 08:30;18.047
01.01.2023 08:45;18.229
01.01.2023 09:00;18.187
01.01.2023 09:15;20.130
01.01.2023 09:30;20.460
01.01.2023 09:45;21.355
01.01.2023 10:00;21.596
01.01.2023 10:15;22.836
01.01.2023 10:30;23.900
01.01.2023 10:45;24.040
01.01.2023 11:00;24.909
01.01.2023 11:15;25.563
01.01.2023 11:30;25.952
01.01.2023 11:45;25.107
01.01.2023 12:00;28.255
01.01.2023 12:15;27.899
01.01.2023 12:30;28.163
01.01.2023 12:45;28.379
01.01.2023 13:00;27.974
01.01.2023 13:15;27.446
01.01.2023 13:30;28.516
01.01.2023 13:45;27.223
01.01.2023 14:00;25.825
01.01.2023 14:15;27.238
01.01.2023 14:30;27.853
01.01.2023 14:45;25.826
01.01.2023 15:00;28.219
01.01.2023 15:15;28.075
01.01.2023 15:30;26.834
01.01.2023 15:45;29.115
01.01.2023 16:00;28.901
01.01.2023 16:15;29.141
01.01.2023 16:30;30.295
01.01.2023 16:45;31.521
01.01.2023 17:00;32.119
01.01.2023 17:15;33.081
01.01.2023 17:30;33.785
01.01.2023 17:45;32.658
01.01.2023 18:00;32.655
01.01.2023 18:15;31.885
01.01.2023 18:30;32.074
01.01.2023 18:45;31.918
01.01.2023 19:00;31.207
01.01.2023 19:15;31.532
01.01.2023 19:30;30.586
01.01.2023 19:45;29.816
01.01.2023 20:00;28.373
01.01.2023 20:15;28.757
01.01.2023 20:30;28.509
01.01.2023 20:45;27.239
01.01.2023 21:00;25.392
01.01.2023 21:15;24.582
01.01.2023 21:30;24.244
01.01.2023 21:45;24.287
01.01.2023 22:00;24.678
01.01.2023 22:15;23.692
01.01.2023 22:30;22.186
01.01.2023 22:45;20.947
01.01.2023 23:00;21.145
01.01.2023 23:15;19.864
01.01.2023 23:30;19.500
01.01.2023 23:45;18.589
02.01.2023 00:00;17.236
02.01.2023 00:15;16.961
02.01.2023 00:30;16.852
02.01.2023 00:45;16.206
02.01.2023 01:00;16.061
02.01.2023 01:15;16.104
02.01.2023 01:30;14.531
02.01.2023 01:45;15.531
02.01.2023 02:00;15.427
02.01.2023 02:15;14.854
02.01.2023 02:30;14.912
02.01.2023 02:45;14.547
02.01.2023 03:00;13.527
02.01.2023 03:15;14.072
02.01.2023 03:30;14.174
02.01.2023 03:45;13.689
02.01.2023 04:00;14.501
02.01.2023 04:15;14.916
02.01.2023 04:30;15.423
02.01.2023 04:45;14.159
02.01.2023 05:00;16.117
02.01.2023 05:15;15.814
02.01.2023 05:30;16.914
02.01.2023 05:45;16.989
02.01.2023 06:00;19.157
02.01.2023 06:15;19.416
02.01.2023 06:30;19.914
02.01.2023 06:45;21.139
02.01.2023 07:00;22.079
02.01.2023 07:15;22.430
02.01.2023 07:30;23.840
02.01.2023 07:45;24.702
02.01.2023 08:00;25.101
02.01.2023 08:15;25.736
02.01.2023 08:30;28.193
02.01.2023 08:45;26.268
02.01.2023 09:00;29.989
02.01.2023 09:15;29.358
02.01.2023 09:30;29.893
02.01.2023 09:45;29.901
02.01.2023 10:00;32.198
02.01.2023 10:15;33.093
02.01.2023 10:30;30.976
02.01.2023 10:45;30.082
02.01.2023 11:00;33.158
02.01.2023 11:15;33.093
02.01.2023 11:30;33.953
02.01.2023 11:45;34.402
02.01.2023 12:00;34.508
02.01.2023 12:15;33.889
02.01.2023 12:30;35.610
02.01.2023 12:45;35.026
02.01.2023 13:00;33.934
02.01.2023 13:15;33.688
02.01.2023 13:30;33.933
02.01.2023 13:45;33.756
02.01.2023 14:00;33.345
02.01.2023 14:15;33.035
02.01.2023 14:30;33.322
02.01.2023 14:45;33.115
02.01.2023 15:00;33.955
02.01.2023 15:15;33.617
02.01.2023 15:30;33.814
02.01.2023 15:45;33.522
02.01.2023 16:00;33.245
02.01.2023 16:15;34.679
02.01.2023 16:30;35.350
02.01.2023 16:45;35.736
02.01.2023 17:00;36.212
02.01.2023 17:15;35.796
02.01.2023 17:30;37.235
02.01.2023 17:45;37.023
02.01.2023 18:00;36.044
02.01.2023 18:15;35.666
02.01.2023 18:30;35.295
02.01.2023 18:45;34.774
02.01.2023 19:00;34.880
02.01.2023 19:15;33.097
02.01.2023 19:30;33.751
02.01.2023 19:45;32.105
02.01.2023 20:00;30.695
02.01.2023 20:15;30.254
02.01.2023 20:30;28.828
02.01.2023 20:45;29.157
02.01.2023 21:00;27.918
02.01.2023 21:15;26.824
02.01.2023 21:30;26.399
02.01.2023 21:45;25.919
02.01.2023 22:00;24.556
02.01.2023 22:15;24.379
02.01.2023 22:30;22.884
02.01.2023 22:45;21.736
02.01.2023 23:00;21.521
02.01.2023 23:15;20.753
02.01.2023 23:30;19.419
02.01.2023 23:45;19.133
03.01.2023 00:00;18.648
03.01.2023 00:15;17.689
03.01.2023 00:30;17.197
03.01.2023 00:45;17.969
03.01.2023 01:00;16.162
03.01.2023 01:15;16.232
03.01.2023 01:30;15.952
03.01.2023 01:45;16.457
03.01.2023 02:00;15.617
03.01.2023 02:15;15.229
03.01.2023 02:30;14.064
03.01.2023 02:45;14.907
03.01.2023 03:00;16.123
03.01.2023 03:15;15.216
03.01.2023 03:30;14.177
03.01.2023 03:45;14.738
03.01.2023 04:00;15.157
03.01.2023 04:15;14.748
03.01.2023 04:30;15.900
03.01.2023 04:45;16.098
03.01.2023 05:00;16.777
03.01.2023 05:15;16.573
03.01.2023 05:30;17.421
03.01.2023 05:45;18.231
03.01.2023 06:00;18.904
03.01.2023 06:15;20.397
03.01.2023 06:30;21.291
03.01.2023 06:45;22.294
03.01.2023 07:00;22.617
03.01.2023 07:15;23.143
03.01.2023 07:30;24.812
03.01.2023 07:45;25.739
03.01.2023 08:00;26.302
03.01.2023 08:15;27.154
03.01.2023 08:30;27.009
03.01.2023 08:45;27.809
03.01.2023 09:00;28.907
03.01.2023 09:15;29.002
03.01.2023 09:30;29.691
03.01.2023 09:45;30.054
03.01.2023 10:00;30.267
03.01.2023 10:15;30.830
03.01.2023 10:30;31.098
03.01.2023 10:45;31.208
03.01.2023 11:00;30.437
03.01.2023 11:15;30.878
03.01.2023 11:30;32.092
03.01.2023 11:45;31.490
03.01.2023 12:00;32.043
03.01.2023 12:15;32.597
03.01.2023 12:30;32.527
03.01.2023 12:45;32.600
03.01.2023 13:00;32.059
03.01.2023 13:15;32.526
03.01.2023 13:30;32.734
03.01.2023 13:45;32.278
03.01.2023 14:00;32.920
03.01.2023 14:15;32.845
03.01.2023 14:30;33.034
03.01.2023 14:45;32.920
03.01.2023 15:00;33.132
03.01.2023 15:15;33.650
03.01.2023 15:30;34.171
03.01.2023 15:45;35.115
03.01.2023 16:00;35.190
03.01.2023 16:15;35.419
03.01.2023 16:30;36.283
03.01.2023 16:45;36.325
03.01.2023 17:00;37.032
03.01.2023 17:15;36.826
03.01.2023 17:30;37.565
03.01.2023 17:45;37.832
03.01.2023 18:00;37.179
03.01.2023 18:15;36.948
03.01.2023 18:30;35.999
03.01.2023 18:45;35.331
03.01.2023 19:00;34.361
03.01.2023 19:15;33.844
03.01.2023 19:30;33.478
03.01.2023 19:45;32.230
03.01.2023 20:00;31.638
03.01.2023 20:15;31.126
03.01.2023 20:30;30.465
03.01.2023 20:45;28.476
03.01.2023 21:00;28.127
03.01.2023 21:15;27.754
03.01.2023 21:30;26.343
03.01.2023 21:45;26.426
03.01.2023 22:00;25.436
03.01.2023 22:15;23.627
03.01.2023 22:30;22.461
03.01.2023 22:45;22.446
03.01.2023 23:00;21.651
03.01.2023 23:15;20.561
03.01.2023 23:30;19.626
03.01.2023 23:45;19.118
04.01.2023 00:00;18.920
04.01.2023 00:15;18.598
04.01.2023 00:30;17.345
04.01.2023 00:45;16.878
04.01.2023 01:00;16.832
04.01.2023 01:15;16.143
04.01.2023 01:30;16.446
04.01.2023 01:45;15.712
04.01.2023 02:00;15.262
04.01.2023 02:15;14.831
04.01.2023 02:30;15.231
04.01.2023 02:45;15.326
04.01.2023 03:00;14.890
04.01.2023 03:15;14.428
04.01.2023 03:30;15.341
04.01.2023 03:45;15.473
04.01.2023 04:00;15.035
04.01.2023 04:15;15.285
04.01.2023 04:30;15.495
04.01.2023 04:45;16.758
04.01.2023 05:00;16.234
04.01.2023 05:15;16.989
04.01.2023 05:30;17.994
04.01.2023 05:45;18.161
04.01.2023 06:00;20.665
04.01.2023 06:15;20.602
04.01.2023 06:30;21.536
04.01.2023 06:45;22.006
04.01.2023 07:00;23.021
04.01.2023 07:15;23.312
04.01.2023 07:30;24.543
04.01.2023 07:45;25.674
04.01.2023 08:00;26.351
04.01.2023 08:15;27.842
04.01.2023 08:30;28.101
04.01.2023 08:45;28.973
04.01.2023 09:00;28.699
04.01.2023 09:15;29.450
04.01.2023 09:30;30.999
04.01.2023 09:45;31.656
04.01.2023 10:00;31.230
04.01.2023 10:15;32.106
04.01.2023 10:30;32.248
04.01.2023 10:45;32.904
04.01.2023 11:00;33.414
04.01.2023 11:15;33.534
04.01.2023 11:30;34.256
04.01.2023 11:45;34.638
04.01.2023 12:00;35.374
04.01.2023 12:15;35.050
04.01.2023 12:30;35.488
04.01.2023 12:45;35.455
04.01.2023 13:00;35.602
04.01.2023 13:15;34.642
04.01.2023 13:30;34.841
04.01.2023 13:45;35.279
04.01.2023 14:00;33.581
04.01.2023 14:15;34.891
04.01.2023 14:30;33.988
04.01.2023 14:45;34.314
04.01.2023 15:00;34.513
04.01.2023 15:15;34.494
04.01.2023 15:30;33.743
04.01.2023 15:45;34.520
04.01.2023 16:00;35.479
04.01.2023 16:15;35.289
04.01.2023 16:30;34.686
04.01.2023 16:45;36.943
04.01.2023 17:00;37.511
04.01.2023 17:15;37.002
04.01.2023 17:30;37.346
04.01.2023 17:45;37.765
04.01.2023 18:00;37.553
04.01.2023 18:15;36.822
04.01.2023 18:30;37.087
04.01.2023 18:45;35.729
04.01.2023 19:00;36.040
04.01.2023 19:15;34.938
04.01.2023 19:30;33.792
04.01.2023 19:45;33.272
04.01.2023 20:00;32.209
04.01.2023 20:15;31.636
04.01.2023 20:30;29.475
04.01.2023 20:45;29.158
04.01.2023 21:00;28.491
04.01.2023 21:15;27.914
04.01.2023 21:30;26.732
04.01.2023 21:45;26.381
04.01.2023 22:00;25.081
04.01.2023 22:15;23.803
04.01.2023 22:30;23.165
04.01.2023 22:45;22.614
04.01.2023 23:00;21.059
04.01.2023 23:15;20.832
04.01.2023 23:30;19.998
04.01.2023 23:45;18.379
05.01.2023 00:00;19.956
05.01.2023 00:15;17.143
05.01.2023 00:30;17.377
05.01.2023 00:45;16.891
05.01.2023 01:00;15.652
05.01.2023 01:15;18.168
05.01.2023 01:30;15.656
05.01.2023 01:45;16.218
05.01.2023 02:00;15.328
05.01.2023 02:15;14.638
05.01.2023 02:30;16.742
05.01.2023 02:45;15.308
05.01.2023 03:00;13.906
05.01.2023 03:15;14.886
05.01.2023 03:30;15.142
05.01.2023 03:45;15.745
05.01.2023 04:00;14.251
05.01.2023 04:15;16.249
05.01.2023 04:30;14.815
05.01.2023 04:45;16.687
05.01.2023 05:00;16.560
05.01.2023 05:15;17.219
05.01.2023 05:30;17.325
05.01.2023 05:45;18.242
05.01.2023 06:00;19.337
05.01.2023 06:15;20.569
05.01.2023 06:30;21.391
05.01.2023 06:45;22.000
05.01.2023 07:00;22.825
05.01.2023 07:15;23.494
05.01.2023 07:30;24.721
05.01.2023 07:45;26.818
05.01.2023 08:00;27.268
05.01.2023 08:15;27.592
05.01.2023 08:30;27.709
05.01.2023 08:45;27.692
05.01.2023 09:00;29.006
05.01.2023 09:15;29.171
05.01.2023 09:30;29.483
05.01.2023 09:45;29.402
05.01.2023 10:00;30.754
05.01.2023 10:15;30.937
05.01.2023 10:30;31.300
05.01.2023 10:45;30.241
05.01.2023 11:00;30.867
05.01.2023 11:15;32.297
05.01.2023 11:30;30.962
05.01.2023 11:45;32.001
05.01.2023 12:00;32.485
05.01.2023 12:15;33.028
05.01.2023 12:30;32.389
05.01.2023 12:45;31.957
05.01.2023 13:00;30.711
05.01.2023 13:15;32.317
05.01.2023 13:30;31.428
05.01.2023 13:45;31.239
05.01.2023 14:00;31.538
05.01.2023 14:15;30.720
05.01.2023 14:30;30.767
05.01.2023 14:45;31.430
05.01.2023 15:00;32.134
05.01.2023 15:15;31.589
05.01.2023 15:30;32.341
05.01.2023 15:45;32.625
05.01.2023 16:00;32.504
05.01.2023 16:15;33.135
05.01.2023 16:30;34.028
05.01.2023 16:45;35.284
05.01.2023 17:00;36.144
05.01.2023 17:15;36.896
05.01.2023 17:30;37.326
05.01.2023 17:45;37.650
05.01.2023 18:00;36.627
05.01.2023 18:15;36.805
05.01.2023 18:30;36.749
05.01.2023 18:45;35.780
05.01.2023 19:00;35.426
05.01.2023 19:15;34.242
05.01.2023 19:30;33.776
05.01.2023 19:45;32.822
05.01.2023 20:00;31.728
05.01.2023 20:15;30.854
05.01.2023 20:30;30.232
05.01.2023 20:45;28.778
05.01.2023 21:00;28.382
05.01.2023 21:15;27.490
05.01.2023 21:30;26.553
05.01.2023 21:45;25.660
05.01.2023 22:00;24.935
05.01.2023 22:15;24.395
05.01.2023 22:30;23.242
05.01.2023 22:45;21.838
05.01.2023 23:00;20.982
05.01.2023 23:15;20.637
05.01.2023 23:30;19.423
05.01.2023 23:45;18.542
06.01.2023 00:00;19.217
06.01.2023 00:15;17.508
06.01.2023 00:30;17.412
06.01.2023 00:45;16.927
06.01.2023 01:00;16.657
06.01.2023 01:15;15.443
06.01.2023 01:30;16.002
06.01.2023 01:45;15.835
06.01.2023 02:00;15.106
06.01.2023 02:15;15.157
06.01.2023 02:30;14.671
06.01.2023 02:45;14.964
06.01.2023 03:00;14.824
06.01.2023 03:15;14.445
06.01.2023 03:30;14.457
06.01.2023 03:45;14.702
06.01.2023 04:00;15.083
06.01.2023 04:15;15.100
06.01.2023 04:30;15.369
06.01.2023 04:45;15.628
06.01.2023 05:00;15.887
06.01.2023 05:15;17.155
06.01.2023 05:30;17.557
06.01.2023 05:45;17.893
06.01.2023 06:00;19.051
06.01.2023 06:15;20.697
06.01.2023 06:30;20.458
06.01.2023 06:45;21.459
06.01.2023 07:00;22.278
06.01.2023 07:15;23.478
06.01.2023 07:30;24.359
06.01.2023 07:45;26.135
06.01.2023 08:00;26.940
06.01.2023 08:15;27.978
06.01.2023 08:30;28.163
06.01.2023 08:45;28.651
06.01.2023 09:00;28.714
06.01.2023 09:15;29.599
06.01.2023 09:30;30.690
06.01.2023 09:45;31.219
06.01.2023 10:00;31.180
06.01.2023 10:15;33.145
06.01.2023 10:30;33.386
06.01.2023 10:45;31.776
06.01.2023 11:00;30.921
06.01.2023 11:15;31.561
06.01.2023 11:30;30.711
06.01.2023 11:45;31.199
06.01.2023 12:00;31.692
06.01.2023 12:15;31.110
06.01.2023 12:30;31.845
06.01.2023 12:45;31.645
06.01.2023 13:00;29.855
06.01.2023 13:15;32.010
06.01.2023 13:30;32.909
06.01.2023 13:45;30.413
06.01.2023 14:00;31.106
06.01.2023 14:15;29.898
06.01.2023 14:30;32.412
06.01.2023 14:45;31.435
06.01.2023 15:00;31.982
06.01.2023 15:15;32.691
06.01.2023 15:30;32.560
06.01.2023 15:45;32.376
06.01.2023 16:00;33.002
06.01.2023 16:15;34.136
06.01.2023 16:30;34.344
06.01.2023 16:45;35.934
06.01.2023 17:00;36.459
06.01.2023 17:15;36.663
06.01.2023 17:30;36.716
06.01.2023 17:45;36.826
06.01.2023 18:00;36.282
06.01.2023 18:15;36.898
06.01.2023 18:30;35.945
06.01.2023 18:45;35.547
06.01.2023 19:00;35.133
06.01.2023 19:15;34.388
06.01.2023 19:30;32.869
06.01.2023 19:45;33.159
06.01.2023 20:00;31.627
06.01.2023 20:15;31.349
06.01.2023 20:30;29.995
06.01.2023 20:45;29.364
06.01.2023 21:00;28.668
06.01.2023 21:15;27.658
06.01.2023 21:30;27.156
06.01.2023 21:45;25.889
06.01.2023 22:00;25.206
06.01.2023 22:15;24.594
06.01.2023 22:30;24.218
06.01.2023 22:45;23.290
06.01.2023 23:00;22.052
06.01.2023 23:15;21.345
06.01.2023 23:30;21.041
06.01.2023 23:45;20.149
07.01.2023 00:00;19.712
07.01.2023 00:15;18.470
07.01.2023 00:30;18.472
07.01.2023 00:45;17.966
07.01.2023 01:00;17.109
07.01.2023 01:15;16.641
07.01.2023 01:30;16.984
07.01.2023 01:45;16.366
07.01.2023 02:00;15.089
07.01.2023 02:15;16.266
07.01.2023 02:30;15.352
07.01.2023 02:45;15.330
07.01.2023 03:00;15.119
07.01.2023 03:15;14.922
07.01.2023 03:30;15.361
07.01.2023 03:45;14.644
07.01.2023 04:00;14.637
07.01.2023 04:15;14.990
07.01.2023 04:30;14.737
07.01.2023 04:45;15.469
07.01.2023 05:00;15.289
07.01.2023 05:15;15.790
07.01.2023 05:30;16.540
07.01.2023 05:45;17.400
07.01.2023 06:00;17.084
07.01.2023 06:15;18.102
07.01.2023 06:30;18.125
07.01.2023 06:45;19.331
07.01.2023 07:00;19.499
07.01.2023 07:15;19.273
07.01.2023 07:30;20.866
07.01.2023 07:45;21.431
07.01.2023 08:00;22.399
07.01.2023 08:15;22.931
07.01.2023 08:30;24.188
07.01.2023 08:45;24.519
07.01.2023 09:00;25.334
07.01.2023 09:15;26.574
07.01.2023 09:30;26.599
07.01.2023 09:45;28.442
07.01.2023 10:00;28.829
07.01.2023 10:15;29.039
07.01.2023 10:30;29.694
07.01.2023 10:45;30.741
07.01.2023 11:00;30.889
07.01.2023 11:15;30.619
07.01.2023 11:30;31.233
07.01.2023 11:45;31.835
07.01.2023 12:00;31.392
07.01.2023 12:15;33.052
07.01.2023 12:30;32.044
07.01.2023 12:45;32.361
07.01.2023 13:00;32.603
07.01.2023 13:15;31.776
07.01.2023 13:30;32.578
07.01.2023 13:45;32.364
07.01.2023 14:00;32.266
07.01.2023 14:15;32.130
07.01.2023 14:30;31.965
07.01.2023 14:45;31.685
07.01.2023 15:00;32.112
07.01.2023 15:15;31.040
07.01.2023 15:30;31.366
07.01.2023 15:45;31.391
07.01.2023 16:00;31.003
07.01.2023 16:15;33.134
07.01.2023 16:30;33.290
07.01.2023 16:45;34.027
07.01.2023 17:00;35.242
07.01.2023 17:15;35.595
07.01.2023 17:30;35.022
07.01.2023 17:45;35.915
07.01.2023 18:00;36.570
07.01.2023 18:15;35.434
07.01.2023 18:30;35.467
07.01.2023 18:45;34.839
07.01.2023 19:00;33.802
07.01.2023 19:15;33.526
07.01.2023 19:30;32.943
07.01.2023 19:45;31.727
07.01.2023 20:00;31.354
07.01.2023 20:15;30.786
07.01.2023 20:30;28.817
07.01.2023 20:45;29.383
07.01.2023 21:00;28.507
07.01.2023 21:15;26.861
07.01.2023 21:30;26.220
07.01.2023 21:45;25.598
07.01.2023 22:00;25.160
07.01.2023 22:15;24.605
07.01.2023 22:30;23.546
07.01.2023 22:45;23.138
07.01.2023 23:00;22.686
07.01.2023 23:15;21.326
07.01.2023 23:30;20.552
07.01.2023 23:45;20.252
08.01.2023 00:00;19.952
08.01.2023 00:15;19.049
08.01.2023 00:30;18.465
08.01.2023 00:45;17.967
08.01.2023 01:00;17.850
08.01.2023 01:15;17.083
08.01.2023 01:30;16.235
08.01.2023 01:45;16.324
08.01.2023 02:00;17.836
08.01.2023 02:15;15.485
08.01.2023 02:30;15.624
08.01.2023 02:45;15.508
08.01.2023 03:00;16.134
08.01.2023 03:15;14.726
08.01.2023 03:30;14.649
08.01.2023 03:45;15.290
08.01.2023 04:00;13.447
08.01.2023 04:15;15.474
08.01.2023 04:30;14.037
08.01.2023 04:45;14.147
08.01.2023 05:00;15.832
08.01.2023 05:15;15.116
08.01.2023 05:30;14.795
08.01.2023 05:45;15.880
08.01.2023 06:00;15.382
08.01.2023 06:15;16.272
08.01.2023 06:30;16.567
08.01.2023 06:45;16.091
08.01.2023 07:00;16.881
08.01.2023 07:15;17.925
08.01.2023 07:30;17.389
08.01.2023 07:45;18.637
08.01.2023 08:00;18.925
08.01.2023 08:15;21.387
08.01.2023 08:30;21.576
08.01.2023 08:45;21.695
08.01.2023 09:00;22.938
08.01.2023 09:15;23.147
08.01.2023 09:30;24.117
08.01.2023 09:45;23.913
08.01.2023 10:00;26.035
08.01.2023 10:15;27.749
08.01.2023 10:30;27.403
08.01.2023 10:45;27.327
08.01.2023 11:00;28.350
08.01.2023 11:15;29.108
08.01.2023 11:30;29.319
08.01.2023 11:45;30.414
08.01.2023 12:00;29.563
08.01.2023 12:15;30.118
08.01.2023 12:30;30.379
08.01.2023 12:45;30.246
08.01.2023 13:00;29.568
08.01.2023 13:15;28.350
08.01.2023 13:30;29.881
08.01.2023 13:45;28.599
08.01.2023 14:00;27.197
08.01.2023 14:15;27.487
08.01.2023 14:30;28.525
08.01.2023 14:45;28.531
08.01.2023 15:00;27.562
08.01.2023 15:15;28.012
08.01.2023 15:30;30.388
08.01.2023 15:45;29.020
08.01.2023 16:00;28.964
08.01.2023 16:15;29.494
08.01.2023 16:30;30.841
08.01.2023 16:45;32.024
08.01.2023 17:00;33.071
08.01.2023 17:15;35.065
08.01.2023 17:30;35.068
08.01.2023 17:45;34.459
08.01.2023 18:00;33.946
08.01.2023 18:15;33.891
08.01.2023 18:30;34.086
08.01.2023 18:45;33.630
08.01.2023 19:00;32.920
08.01.2023 19:15;31.485
08.01.2023 19:30;31.056
08.01.2023 19:45;30.513
08.01.2023 20:00;30.256
08.01.2023 20:15;30.104
08.01.2023 20:30;29.009
08.01.2023 20:45;27.946
08.01.2023 21:00;26.466
08.01.2023 21:15;27.294
08.01.2023 21:30;24.804
08.01.2023 21:45;24.704
08.01.2023 22:00;24.050
08.01.2023 22:15;23.557
08.01.2023 22:30;21.820
08.01.2023 22:45;20.663
08.01.2023 23:00;20.200
08.01.2023 23:15;19.537
08.01.2023 23:30;18.414
08.01.2023 23:45;18.408
09.01.2023 00:00;18.706
09.01.2023 00:15;16.892
09.01.2023 00:30;15.628
09.01.2023 00:45;16.449
09.01.2023 01:00;16.569
09.01.2023 01:15;15.477
09.01.2023 01:30;15.626
09.01.2023 01:45;15.016
09.01.2023 02:00;15.479
09.01.2023 02:15;14.783
09.01.2023 02:30;13.587
09.01.2023 02:45;14.509
09.01.2023 03:00;14.505
09.01.2023 03:15;15.448
09.01.2023 03:30;13.664
09.01.2023 03:45;13.792
09.01.2023 04:00;15.309
09.01.2023 04:15;15.839
09.01.2023 04:30;15.716
09.01.2023 04:45;15.910
09.01.2023 05:00;17.067
09.01.2023 05:15;16.950
09.01.2023 05:30;17.342
09.01.2023 05:45;18.404
09.01.2023 06:00;20.367
09.01.2023 06:15;20.803
09.01.2023 06:30;22.847
09.01.2023 06:45;23.743
09.01.2023 07:00;24.627
09.01.2023 07:15;26.035
09.01.2023 07:30;25.439
09.01.2023 07:45;28.309
09.01.2023 08:00;29.080
09.01.2023 08:15;28.893
09.01.2023 08:30;29.104
09.01.2023 08:45;29.519
09.01.2023 09:00;30.198
09.01.2023 09:15;30.638
09.01.2023 09:30;30.411
09.01.2023 09:45;31.471
09.01.2023 10:00;33.009
09.01.2023 10:15;32.679
09.01.2023 10:30;31.796
09.01.2023 10:45;32.471
09.01.2023 11:00;32.534
09.01.2023 11:15;32.356
09.01.2023 11:30;32.856
09.01.2023 11:45;34.282
09.01.2023 12:00;33.623
09.01.2023 12:15;34.276
09.01.2023 12:30;34.110
09.01.2023 12:45;34.213
09.01.2023 13:00;33.968
09.01.2023 13:15;33.926
09.01.2023 13:30;33.610
09.01.2023 13:45;33.083
09.01.2023 14:00;33.725
09.01.2023 14:15;33.412
09.01.2023 14:30;32.810
09.01.2023 14:45;33.384
09.01.2023 15:00;33.427
09.01.2023 15:15;33.258
09.01.2023 15:30;33.222
09.01.2023 15:45;33.178
09.01.2023 16:00;33.634
09.01.2023 16:15;34.489
09.01.2023 16:30;34.686
09.01.2023 16:45;35.824
09.01.2023 17:00;37.016
09.01.2023 17:15;36.831
09.01.2023 17:30;36.815
09.01.2023 17:45;37.396
09.01.2023 18:00;36.910
09.01.2023 18:15;36.694
09.01.2023 18:30;36.723
09.01.2023 18:45;35.464
09.01.2023 19:00;35.269
09.01.2023 19:15;33.721
09.01.2023 19:30;33.836
09.01.2023 19:45;32.422
09.01.2023 20:00;32.370
09.01.2023 20:15;30.339
09.01.2023 20:30;29.788
09.01.2023 20:45;28.469
09.01.2023 21:00;28.027
09.01.2023 21:15;27.582
09.01.2023 21:30;25.785
09.01.2023 21:45;25.528
09.01.2023 22:00;23.984
09.01.2023 22:15;23.163
09.01.2023 22:30;22.791
09.01.2023 22:45;21.314
09.01.2023 23:00;20.861
09.01.2023 23:15;19.388
09.01.2023 23:30;19.344
09.01.2023 23:45;18.477
10.01.2023 00:00;17.986
10.01.2023 00:15;17.393
10.01.2023 00:30;17.126
10.01.2023 00:45;16.816
10.01.2023 01:00;15.806
10.01.2023 01:15;15.898
10.01.2023 01:30;15.265
10.01.2023 01:45;15.224
10.01.2023 02:00;15.067
10.01.2023 02:15;15.090
10.01.2023 02:30;14.628
10.01.2023 02:45;15.513
10.01.2023 03:00;14.164
10.01.2023 03:15;15.223
10.01.2023 03:30;14.985
10.01.2023 03:45;15.159
10.01.2023 04:00;14.852
10.01.2023 04:15;15.056
10.01.2023 04:30;15.118
10.01.2023 04:45;15.726
10.01.2023 05:00;17.147
10.01.2023 05:15;17.669
10.01.2023 05:30;18.230
10.01.2023 05:45;19.107
10.01.2023 06:00;20.325
10.01.2023 06:15;21.743
10.01.2023 06:30;22.783
10.01.2023 06:45;23.925
10.01.2023 07:00;24.808
10.01.2023 07:15;25.771
10.01.2023 07:30;25.555
10.01.2023 07:45;28.195
10.01.2023 08:00;29.164
10.01.2023 08:15;29.447
10.01.2023 08:30;28.900
10.01.2023 08:45;29.271
10.01.2023 09:00;30.526
10.01.2023 09:15;30.263
10.01.2023 09:30;30.449
10.01.2023 09:45;30.867
10.01.2023 10:00;31.531
10.01.2023 10:15;30.931
10.01.2023 10:30;31.367
10.01.2023 10:45;31.574
10.01.2023 11:00;32.549
10.01.2023 11:15;32.337
10.01.2023 11:30;33.900
10.01.2023 11:45;33.379
10.01.2023 12:00;33.445
10.01.2023 12:15;34.333
10.01.2023 12:30;34.474
10.01.2023 12:45;33.244
10.01.2023 13:00;32.435
10.01.2023 13:15;33.046
10.01.2023 13:30;32.431
10.01.2023 13:45;32.473
10.01.2023 14:00;32.503
10.01.2023 14:15;32.290
10.01.2023 14:30;32.281
10.01.2023 14:45;32.367
10.01.2023 15:00;32.520
10.01.2023 15:15;32.622
10.01.2023 15:30;33.028
10.01.2023 15:45;32.897
10.01.2023 16:00;33.910
10.01.2023 16:15;33.988
10.01.2023 16:30;34.539
10.01.2023 16:45;35.585
10.01.2023 17:00;36.521
10.01.2023 17:15;38.123
10.01.2023 17:30;37.387
10.01.2023 17:45;37.584
10.01.2023 18:00;37.882
10.01.2023 18:15;37.540
10.01.2023 18:30;37.343
10.01.2023 18:45;36.815
10.01.2023 19:00;36.559
10.01.2023 19:15;34.077
10.01.2023 19:30;33.722
10.01.2023 19:45;33.339
10.01.2023 20:00;32.521
10.01.2023 20:15;32.809
10.01.2023 20:30;31.253
10.01.2023 20:45;29.483
10.01.2023 21:00;28.328
10.01.2023 21:15;27.546
10.01.2023 21:30;26.709
10.01.2023 21:45;26.046
10.01.2023 22:00;25.027